DW0793 Weather Reports


time (UTC)temp
F
wind
direction
speed
knots
gust
knots
rain 1hr
in
rain 24hr
in
rain mn
in
humidity
%
barometer
mb
20260510015804 51 30 0.0 0.0 0.00 0.25 0.25 98 1010.2
20260510014803 51 30 0.0 0.0 0.00 0.25 0.25 97 1010.0
20260510013804 52 30 0.0 0.0 0.00 0.25 0.25 97 1009.9
20260510012806 52 30 0.0 0.0 0.00 0.25 0.25 97 1009.8
20260510012307 52 30 0.0 0.0 0.00 0.25 0.25 96 1009.9
20260510011806 52 30 0.0 0.0 0.00 0.25 0.25 96 1009.9
20260510011306 52 30 0.0 0.0 0.00 0.25 0.25 96 1009.9
20260510010812 53 30 0.0 0.0 0.00 0.25 0.25 95 1009.8
20260510010304 53 30 0.0 0.0 0.00 0.25 0.25 95 1009.8
20260510005803 53 30 0.0 0.0 0.00 0.25 0.25 95 1009.7
20260510005306 53 30 0.0 0.0 0.00 0.25 0.25 95 1009.6
20260510004305 54 30 0.0 0.0 0.00 0.25 0.25 94 1009.6
20260510003803 54 30 0.0 0.0 0.00 0.25 0.25 94 1009.4
20260510003304 54 30 0.0 0.0 0.00 0.25 0.25 93 1009.3
20260510002804 55 30 0.0 0.0 0.00 0.25 0.25 93 1009.3
20260510002306 55 30 0.0 0.0 0.00 0.25 0.25 93 1009.3
20260510001803 56 30 0.0 0.0 0.00 0.25 0.25 92 1009.1
20260510001303 56 30 0.0 0.0 0.00 0.25 0.25 91 1009.1
20260510000803 56 30 0.0 0.0 0.00 0.25 0.25 91 1009.1
20260510000304 57 30 0.0 0.0 0.00 0.25 0.25 91 1009.0
20260509235804 57 30 0.0 0.0 0.00 0.25 0.25 90 1009.0
20260509235306 57 30 0.0 0.0 0.00 0.25 0.25 89 1009.0
20260509234805 58 30 0.0 0.0 0.00 0.25 0.25 88 1009.0
20260509234304 58 30 0.0 0.0 0.00 0.25 0.25 87 1008.9
20260509233804 59 30 0.0 0.0 0.00 0.25 0.25 87 1008.8
20260509233304 59 30 0.0 0.0 0.00 0.25 0.25 85 1008.9
20260509232803 59 30 0.0 0.0 0.00 0.25 0.25 85 1008.9
20260509232306 59 30 0.0 0.0 0.00 0.25 0.25 84 1008.8
20260509231803 59 30 0.0 0.0 0.00 0.25 0.25 84 1008.7
20260509230804 59 33 0.0 0.0 0.00 0.25 0.25 83 1008.6
20260509230304 59 32 0.0 0.0 0.00 0.25 0.25 83 1008.6
20260509225803 59 31 0.0 0.0 0.00 0.25 0.25 84 1008.6
20260509225305 59 195 0.0 0.0 0.00 0.25 0.25 85 1008.6
20260509224804 59 195 0.0 0.0 0.00 0.25 0.25 85 1008.6
20260509223803 59 195 0.0 0.0 0.00 0.25 0.25 86 1008.8
20260509223303 59 215 0.0 1.7 0.00 0.25 0.25 86 1008.8
20260509222804 59 230 0.0 0.0 0.00 0.25 0.25 86 1008.8
20260509221803 59 230 0.0 2.6 0.00 0.25 0.25 87 1008.7
20260509221305 59 229 0.0 2.6 0.00 0.25 0.25 86 1008.8
20260509220303 59 229 0.0 0.9 0.00 0.25 0.25 88 1008.8
20260509215803 59 229 0.0 0.0 0.00 0.25 0.25 89 1008.8
20260509215306 59 229 0.0 0.0 0.00 0.25 0.25 90 1008.9
20260509214805 59 225 0.9 4.3 0.00 0.25 0.25 90 1008.9
20260509214303 58 213 0.0 0.0 0.00 0.25 0.25 89 1008.9
20260509213803 58 212 0.0 0.0 0.00 0.25 0.25 90 1008.9
20260509212306 58 205 0.9 5.2 0.00 0.25 0.25 91 1009.1
20260509211803 57 222 0.9 6.1 0.00 0.25 0.25 92 1009.2
20260509211303 57 216 0.0 5.2 0.00 0.25 0.25 93 1009.2
20260509210803 57 215 0.0 0.0 0.00 0.25 0.25 93 1009.2
20260509205804 57 215 0.0 0.0 0.00 0.25 0.25 93 1009.3
20260509205306 56 215 0.0 0.0 0.00 0.25 0.25 93 1009.3
20260509204804 56 215 0.0 0.0 0.00 0.25 0.25 93 1009.4
20260509204303 56 215 0.0 0.0 0.00 0.25 0.25 93 1009.4
20260509203803 56 215 0.0 0.0 0.00 0.25 0.25 93 1009.2
20260509203304 56 215 0.0 6.1 0.00 0.25 0.25 92 1009.2
20260509202804 57 203 0.0 0.0 0.00 0.25 0.25 93 1009.4
20260509202306 57 203 0.0 0.0 0.00 0.25 0.25 93 1009.5
20260509201804 57 203 0.0 0.0 0.00 0.25 0.25 93 1009.7
20260509201303 57 203 0.0 0.0 0.00 0.25 0.25 93 1009.6
20260509200303 57 232 0.0 2.6 0.00 0.25 0.25 93 1009.7
20260509195803 57 233 0.9 4.3 0.00 0.25 0.25 93 1009.7
20260509195306 57 222 0.9 7.0 0.00 0.25 0.25 94 1009.8
20260509194803 57 224 0.0 0.0 0.00 0.25 0.25 95 1009.8
20260509194303 57 224 1.7 4.3 0.00 0.25 0.25 95 1010.0
20260509193804 57 225 0.0 2.6 0.00 0.25 0.25 96 1010.0
20260509193304 57 217 0.0 0.0 0.01 0.25 0.25 95 1010.2
20260509192803 57 217 0.0 1.7 0.01 0.25 0.25 95 1010.2
20260509192306 57 216 0.0 1.7 0.01 0.25 0.25 96 1010.2
20260509191823 57 212 0.0 2.6 0.01 0.25 0.25 97 1010.1
20260509191305 57 212 0.9 2.6 0.01 0.25 0.25 97 1010.0
20260509190304 57 212 0.0 4.3 0.01 0.25 0.25 98 1010.0
20260509185821 57 212 0.0 1.7 0.02 0.25 0.25 99 1010.1
20260509185306 56 212 0.0 0.0 0.02 0.25 0.25 99 1010.2
20260509184804 56 212 0.0 0.0 0.02 0.25 0.25 99 1010.3
20260509184304 55 212 0.0 0.0 0.02 0.25 0.25 98 1010.5
20260509183804 55 212 0.0 1.7 0.02 0.25 0.25 98 1010.5
20260509183304 55 212 0.0 0.0 0.02 0.24 0.24 98 1010.5
20260509182803 55 212 0.9 1.7 0.02 0.24 0.24 98 1011.0
20260509181803 54 212 0.0 0.0 0.02 0.24 0.24 98 1010.9
20260509175804 54 212 0.0 0.0 0.03 0.23 0.23 98 1010.8
20260509175306 54 212 0.0 1.7 0.04 0.23 0.23 98 1010.9
20260509174804 54 212 0.0 0.0 0.05 0.23 0.23 98 1011.0
20260509174304 54 212 0.0 0.0 0.06 0.23 0.23 97 1010.9
20260509173803 54 212 0.0 0.0 0.06 0.23 0.23 97 1010.8
20260509173303 54 212 0.0 0.0 0.06 0.22 0.22 97 1010.9
20260509172803 54 212 0.0 0.0 0.07 0.22 0.22 97 1010.9
20260509172306 54 212 0.0 0.0 0.08 0.22 0.22 97 1010.7
20260509171804 54 212 0.0 0.0 0.10 0.22 0.22 97 1010.7
20260509171303 54 212 0.0 0.0 0.11 0.21 0.21 97 1010.8
20260509170803 54 212 0.0 0.0 0.13 0.21 0.21 97 1010.7
20260509170303 54 212 0.0 0.0 0.13 0.20 0.20 97 1010.8
20260509165803 54 212 0.0 0.0 0.14 0.20 0.20 97 1010.9
20260509165306 54 212 0.0 0.0 0.14 0.19 0.19 97 1010.8
20260509164303 54 212 0.0 0.0 0.13 0.17 0.17 97 1010.9
20260509163803 54 212 0.0 0.0 0.13 0.17 0.17 96 1011.0
20260509163303 54 212 0.0 2.6 0.12 0.16 0.16 96 1010.9
20260509162805 54 212 0.0 2.6 0.12 0.15 0.15 96 1011.3
20260509162307 54 212 0.0 0.0 0.11 0.14 0.14 96 1011.4
20260509161804 54 212 0.0 0.0 0.10 0.12 0.12 95 1011.4
20260509161303 54 212 0.0 0.0 0.08 0.10 0.10 95 1011.6
20260509160804 54 212 0.0 1.7 0.06 0.08 0.08 95 1011.5
20260509160304 54 212 0.0 0.0 0.06 0.07 0.07 94 1011.5
20260509155306 54 211 0.0 1.7 0.04 0.05 0.05 94 1011.7
20260509154803 54 211 0.0 5.2 0.04 0.05 0.05 93 1011.6
20260509153804 55 208 0.0 0.0 0.03 0.04 0.04 93 1011.6
20260509153304 55 208 1.7 5.2 0.03 0.04 0.04 93 1011.5
20260509151304 55 130 0.0 0.0 0.01 0.02 0.02 94 1011.7
20260509150804 55 130 0.0 0.0 0.01 0.02 0.02 94 1011.6
20260509150304 55 130 0.0 0.0 0.00 0.01 0.01 94 1011.5
20260509145804 54 130 0.0 0.0 0.00 0.01 0.01 94 1011.5
20260509144804 54 130 0.0 0.0 0.00 0.01 0.01 94 1011.6
20260509144303 54 130 0.0 0.0 0.00 0.01 0.01 94 1011.5
20260509143303 54 130 0.0 0.0 0.00 0.01 0.01 95 1011.4
20260509142803 53 130 0.0 0.0 0.00 0.01 0.01 94 1011.2
20260509142307 53 130 0.0 0.0 0.00 0.01 0.01 94 1011.2
20260509141304 53 130 0.0 0.0 0.00 0.01 0.01 94 1011.1
20260509140304 53 130 0.0 0.0 0.00 0.01 0.01 94 1011.2
20260509135804 53 130 0.0 0.0 0.00 0.01 0.01 94 1011.0
20260509135306 53 130 0.0 0.0 0.00 0.01 0.01 94 1011.0
20260509134803 53 130 0.0 0.0 0.00 0.01 0.01 94 1011.0
20260509134303 53 130 0.0 0.0 0.00 0.01 0.01 94 1011.1
20260509133804 53 130 0.0 0.0 0.01 0.01 0.01 94 1011.2
20260509133303 53 130 0.0 0.0 0.01 0.01 0.01 94 1011.3
20260509132803 52 130 0.0 0.0 0.01 0.01 0.01 95 1011.1
20260509132306 52 130 0.0 0.0 0.01 0.01 0.01 95 1011.2
20260509131803 52 130 0.0 0.0 0.01 0.01 0.01 94 1011.3
20260509131303 52 130 0.0 0.0 0.01 0.01 0.01 94 1011.1
20260509130803 52 130 0.0 0.0 0.01 0.01 0.01 94 1011.3
20260509130304 51 130 0.0 0.0 0.01 0.01 0.01 93 1011.2
20260509125307 51 130 0.0 0.0 0.01 0.01 0.01 93 1010.9
20260509124804 51 135 0.0 0.0 0.01 0.01 0.01 93 1010.6
20260509124304 51 135 0.0 0.0 0.01 0.01 0.01 93 1010.7
20260509123804 51 135 0.0 0.0 0.00 0.00 0.00 93 1010.7
20260509123303 51 135 0.0 1.7 0.00 0.00 0.00 93 1010.6
20260509122803 51 135 2.6 4.3 0.00 0.00 0.00 93 1010.6
20260509122306 51 171 0.0 2.6 0.00 0.00 0.00 92 1010.8
20260509121803 51 172 0.0 0.0 0.00 0.00 0.00 92 1010.9
20260509120804 51 175 0.0 0.0 0.00 0.00 0.00 92 1010.9
20260509120304 51 175 0.9 2.6 0.00 0.00 0.00 93 1010.9
20260509115804 51 175 0.0 0.0 0.00 0.00 0.00 93 1011.0
20260509115306 51 175 0.0 0.0 0.00 0.00 0.00 93 1011.1
20260509114804 50 175 0.0 0.0 0.00 0.00 0.00 93 1011.2
20260509114303 50 177 0.0 0.0 0.00 0.00 0.00 94 1011.2
20260509113804 50 177 0.0 0.0 0.00 0.00 0.00 94 1010.9
20260509113304 50 177 0.0 0.0 0.00 0.00 0.00 94 1010.9
20260509111804 50 177 0.0 0.0 0.00 0.00 0.00 95 1010.8
20260509111303 50 178 0.0 0.0 0.00 0.00 0.00 95 1011.0
20260509110803 50 178 0.0 0.0 0.00 0.00 0.00 95 1011.0
20260509110304 50 178 0.0 0.0 0.00 0.00 0.00 95 1010.9
20260509105804 50 178 0.0 0.0 0.00 0.00 0.00 95 1011.0
20260509105306 49 178 0.0 0.0 0.00 0.00 0.00 95 1010.6
20260509104804 49 178 0.0 0.0 0.00 0.00 0.00 95 1010.4
20260509104305 49 178 0.0 0.0 0.00 0.00 0.00 95 1010.2
20260509103804 49 208 0.0 0.0 0.00 0.00 0.00 95 1010.3
20260509103303 49 209 0.0 0.0 0.00 0.00 0.00 95 1010.4
20260509102803 49 209 0.0 0.0 0.00 0.00 0.00 95 1010.6
20260509102305 49 209 0.0 0.0 0.00 0.00 0.00 95 1010.6
20260509101304 49 209 0.0 0.0 0.00 0.00 0.00 95 1010.6
20260509100805 49 209 0.0 0.0 0.00 0.00 0.00 96 1010.6
20260509100305 49 209 0.0 0.0 0.00 0.00 0.00 96 1010.4
20260509095803 49 209 0.0 0.0 0.00 0.00 0.00 95 1010.4
20260509095306 49 209 0.0 0.0 0.00 0.00 0.00 95 1010.6
20260509094803 49 209 0.0 0.0 0.00 0.00 0.00 95 1010.3
20260509094304 49 209 0.0 0.0 0.00 0.00 0.00 95 1010.3
20260509093804 49 209 0.0 0.0 0.00 0.00 0.00 95 1010.3
20260509092803 49 209 0.0 0.0 0.00 0.00 0.00 95 1010.6
20260509092305 49 209 0.0 0.0 0.00 0.00 0.00 95 1010.8
20260509091304 49 209 0.0 0.0 0.00 0.00 0.00 96 1010.8
20260509090803 49 209 0.0 0.0 0.00 0.00 0.00 96 1010.9
20260509085803 49 209 0.0 0.0 0.00 0.00 0.00 96 1011.0
20260509084804 48 209 0.0 0.0 0.00 0.00 0.00 96 1011.1
20260509084304 48 210 0.0 0.0 0.00 0.00 0.00 96 1011.2
20260509083803 48 210 0.0 0.0 0.00 0.00 0.00 96 1011.2
20260509083303 48 210 0.0 0.0 0.00 0.00 0.00 96 1011.3
20260509082804 48 210 0.0 0.0 0.00 0.00 0.00 96 1011.2
20260509082306 48 210 0.0 0.0 0.00 0.00 0.00 96 1011.3
20260509081803 48 210 0.0 0.0 0.00 0.00 0.00 96 1011.3
20260509081304 48 210 0.0 0.0 0.00 0.00 0.00 95 1011.2
20260509080803 47 210 0.0 0.0 0.00 0.00 0.00 95 1011.2
20260509080304 47 210 0.0 0.0 0.00 0.00 0.00 95 1011.3
20260509075803 47 210 0.0 0.0 0.00 0.00 0.00 94 1011.4
20260509074803 48 210 0.0 0.0 0.00 0.00 0.00 94 1011.5
20260509074304 48 210 0.0 0.0 0.00 0.00 0.00 94 1011.6
20260509073803 48 210 0.0 0.0 0.00 0.00 0.00 93 1011.5
20260509073304 48 210 0.0 0.0 0.00 0.00 0.00 93 1011.5
20260509072805 48 210 0.0 0.0 0.00 0.00 0.00 93 1011.7
20260509072306 48 210 0.0 0.0 0.00 0.00 0.00 92 1011.7
20260509071803 49 210 0.0 0.0 0.00 0.00 0.00 92 1011.6
20260509071304 49 210 0.0 0.0 0.00 0.00 0.00 92 1011.5
20260509070804 49 210 0.0 0.0 0.00 0.00 0.00 92 1011.4
20260509065804 50 210 0.0 0.0 0.00 0.00 0.00 92 1011.4
20260509065306 50 210 0.0 0.0 0.00 0.00 0.00 92 1011.4
20260509064803 50 210 0.0 0.0 0.00 0.00 0.00 92 1011.4
20260509064303 50 210 0.0 0.0 0.00 0.00 0.00 91 1011.5
20260509063804 51 210 0.0 0.0 0.00 0.00 0.00 92 1011.5
20260509062804 51 210 0.0 0.0 0.00 0.00 0.00 91 1011.6
20260509062306 51 210 0.0 0.0 0.00 0.00 0.00 91 1011.7
20260509061803 52 210 0.0 0.0 0.00 0.00 0.00 91 1011.8
20260509061303 52 210 0.0 0.0 0.00 0.00 0.00 91 1012.0
20260509060803 52 210 0.0 0.0 0.00 0.00 0.00 91 1011.9
20260509060303 52 210 0.0 0.0 0.00 0.00 0.00 91 1012.0
20260509055306 52 210 0.0 0.0 0.00 0.00 0.00 91 1012.1
20260509054803 52 210 0.0 0.0 0.00 0.00 0.00 90 1012.1
20260509054303 52 210 0.0 0.0 0.00 0.00 0.00 90 1012.0
20260509053803 52 210 0.0 0.0 0.00 0.00 0.00 89 1011.9
20260509053305 52 210 0.0 0.0 0.00 0.00 0.00 90 1011.8
20260509052804 52 210 0.0 0.0 0.00 0.00 0.00 90 1011.8
20260509052307 52 210 0.0 0.0 0.00 0.00 0.00 89 1011.9
20260509051804 52 210 0.0 0.0 0.00 0.00 0.00 90 1012.0
20260509051304 52 210 0.0 0.0 0.00 0.00 0.00 89 1011.8
20260509050804 52 210 0.0 0.0 0.00 0.00 0.00 89 1011.7
20260509045306 53 210 0.0 0.0 0.00 0.00 0.00 87 1011.9
20260509044803 53 210 0.0 0.0 0.00 0.00 0.00 87 1011.9
20260509044304 53 210 0.0 0.0 0.00 0.00 0.00 86 1012.0
20260509043803 54 210 0.0 0.0 0.00 0.01 0.00 85 1012.2
20260509043303 54 209 0.0 0.0 0.00 0.02 0.00 84 1012.5
20260509042803 54 209 0.0 0.0 0.00 0.02 0.00 83 1012.7
20260509042306 54 209 0.0 0.0 0.00 0.02 0.00 82 1012.6
20260509041804 54 209 0.0 0.0 0.00 0.02 0.00 81 1012.3
20260509041304 54 209 0.0 1.7 0.00 0.02 0.00 81 1012.2
20260509040814 54 209 0.0 0.0 0.00 0.02 0.00 82 1012.2
20260509040303 53 209 0.0 2.6 0.00 0.02 0.00 82 1012.3
20260509035804 53 246 0.0 5.2 0.00 0.02 0.02 82 1012.4
20260509035306 53 188 0.9 4.3 0.00 0.02 0.02 83 1012.6
20260509034803 52 217 0.0 4.3 0.00 0.02 0.02 84 1012.5
20260509034303 52 217 0.0 4.3 0.00 0.02 0.02 85 1012.7
20260509033805 52 263 0.0 1.7 0.00 0.02 0.02 86 1012.7
20260509033304 52 263 0.0 0.0 0.00 0.02 0.02 86 1012.6
20260509032804 52 263 0.0 0.0 0.00 0.02 0.02 86 1012.3
20260509031803 52 263 0.0 0.0 0.00 0.02 0.02 86 1012.1
20260509031304 52 263 0.0 0.0 0.00 0.02 0.02 86 1012.3
20260509030804 52 263 0.0 0.0 0.00 0.02 0.02 86 1012.2
20260509030304 52 263 0.0 0.0 0.00 0.02 0.02 86 1012.2
20260509025306 52 263 0.0 0.0 0.00 0.02 0.02 85 1012.1
20260509024803 52 263 0.0 0.0 0.00 0.02 0.02 85 1012.3
20260509024304 52 263 0.0 0.0 0.00 0.02 0.02 85 1012.3
20260509023804 52 263 0.0 0.0 0.00 0.02 0.02 84 1012.2
20260509023303 52 263 0.0 0.0 0.00 0.02 0.02 84 1012.2
20260509022804 52 263 0.0 0.0 0.00 0.02 0.02 84 1012.3
20260509021804 52 263 0.0 0.0 0.00 0.02 0.02 84 1012.3
20260509021303 52 263 0.0 0.0 0.00 0.02 0.02 84 1012.3